Meteógrafos Informações Meteorológicas em tempo real
Aeroporto de Congonhas
04-08-2020 06:56

Temperatura atual: 12 graus 53 F    Umidade relativa: 87 %
Velocidade do vento: 02 nós 3 Km/h    Direção: 090 graus E
Ajuste do altímetro ..: 1030 HPA
Visibilidade: Regular    Tempo presente: Névoa úmida

Observação
Data Hora BRTTempo°CUmidadePressãoVentoVisib.
04/08 - 05:56   Névoa úmida 12° 87% 1029 Este-nordeste/9 km/h 5000
04/08 - 04:55   Não Disponível 12° 87% 1029 Sudeste/5 km/h 9000
04/08 - 03:55   Céu Limpo 12° 87% 1029 Sudeste/5 km/h OK
04/08 - 02:55   Céu Limpo 13° 87% 1029 Sudeste/5 km/h OK
04/08 - 01:56   Não Disponível 13° 87% 1029 Sul-sudeste/7 km/h OK
04/08 - 00:56   Poucas nuvens esparsas 13° 87% 1029 Sul-sudeste/9 km/h OK
03/08 - 23:56   Parcialmente Nublado 14° 87% 1030 Sudeste/9 km/h OK
03/08 - 23:00   Poucas nuvens esparsas 14° 87% 1030 Sul/9 km/h 9000
03/08 - 22:55   Poucas nuvens esparsas 14° 87% 1030 Sul/9 km/h 9000
03/08 - 21:55   Névoa úmida 14° 93% 1030 Sul-sudoeste/9 km/h 4000
03/08 - 20:55   Névoa úmida 14° 93% 1030 Sul/10 km/h 5000
03/08 - 20:00   Quase sem nuvens 15° 82% 1029 Sul-sudeste/12 km/h 8000
03/08 - 19:56   Quase sem nuvens 15° 82% 1029 Sul-sudeste/12 km/h 8000
03/08 - 19:00   Céu Limpo 16° 82% 1029 Sul-sudeste/10 km/h OK
03/08 - 18:56   Céu Limpo 16° 82% 1029 Sul-sudeste/10 km/h OK
03/08 - 17:56   Quase sem nuvens 17° 72% 1029 Sul-sudeste/12 km/h 9000
03/08 - 16:55   Céu Limpo 19° 63% 1029 Sul-sudeste/14 km/h OK
03/08 - 15:55   Céu Limpo 21° 56% 1029 Este-sudeste/10 km/h OK
03/08 - 14:56   Céu Limpo 21° 52% 1029 Sul-sudeste/12 km/h OK
03/08 - 15:00   Céu Limpo 21° 52% 1029 Sul-sudeste/12 km/h OK
03/08 - 14:00   Não Disponível 20° 60% 1029 Sul-sudeste/16 km/h OK
03/08 - 13:55   Não Disponível 20° 60% 1029 Sul-sudeste/16 km/h OK
03/08 - 12:56   Não Disponível 21° 52% 1030 Este-sudeste/10 km/h OK
03/08 - 12:56   Não Disponível 21° 52% 1030 Este-sudeste/10 km/h OK

Termo de Uso  |   Links Úteis  |   Imprensa  |  Anuncie  |  Fale Conosco  |  Versão Celular  |   Política de Privacidade

Apolo11.com - Todos os direitos reservados - 2000 - 2020

"Os zeros da política são como os zeros na matemática: só têm valor se estiverem à direita" - Lejeune-Dirichlets -